SUR4111 WAMM-RPMD

Flight info

Callsign SUR4111
Flight time 1h 27m
Altitude 34000
Route PEDNO R342 MEGOM
Aircraft B737/M-SDE2E3FGHIRWXY/LB1

Departure

Time 2026-04-18 07:53
Airport Sam Ratulangi International Airport (WAMM)

Arrival

Time 2026-04-18 09:20
Airport Francisco Bangoy International Airport (RPMD)
Time Latitude Longitude Altitude Speed Heading
2026-04-18 07:27 1.54508 124.92350 300 ft 0 kts 271°
2026-04-18 07:42 1.54508 124.92356 301 ft 2 kts 271°
2026-04-18 07:42 1.54508 124.92371 301 ft 2 kts 271°
2026-04-18 07:42 1.54508 124.92387 301 ft 2 kts 271°
2026-04-18 07:42 1.54507 124.92402 302 ft 2 kts 271°
2026-04-18 07:43 1.54507 124.92416 302 ft 2 kts 271°
2026-04-18 07:43 1.54507 124.92431 302 ft 2 kts 272°
2026-04-18 07:43 1.54502 124.92445 302 ft 2 kts 310°
2026-04-18 07:43 1.54489 124.92454 303 ft 2 kts 342°
2026-04-18 07:44 1.54480 124.92456 303 ft 0 kts
2026-04-18 07:44 1.54474 124.92455 303 ft 0 kts
2026-04-18 07:46 1.54477 124.92455 302 ft 1 kts
2026-04-18 07:46 1.54496 124.92457 302 ft 3 kts
2026-04-18 07:47 1.54524 124.92458 302 ft 3 kts
2026-04-18 07:47 1.54551 124.92459 302 ft 4 kts
2026-04-18 07:47 1.54594 124.92459 302 ft 8 kts
2026-04-18 07:47 1.54682 124.92460 301 ft 15 kts
2026-04-18 07:48 1.54803 124.92465 299 ft 18 kts
2026-04-18 07:48 1.54930 124.92469 298 ft 18 kts
2026-04-18 07:48 1.55053 124.92472 298 ft 17 kts
2026-04-18 07:48 1.55170 124.92475 298 ft 16 kts
2026-04-18 07:49 1.55276 124.92479 300 ft 14 kts
2026-04-18 07:49 1.55368 124.92483 301 ft 12 kts
2026-04-18 07:49 1.55467 124.92487 301 ft 15 kts
2026-04-18 07:49 1.55567 124.92492 302 ft 13 kts
2026-04-18 07:50 1.55653 124.92493 304 ft 12 kts
2026-04-18 07:50 1.55750 124.92496 304 ft 14 kts
2026-04-18 07:50 1.55852 124.92498 304 ft 14 kts
2026-04-18 07:50 1.55950 124.92502 303 ft 13 kts
2026-04-18 07:51 1.56045 124.92506 302 ft 14 kts
2026-04-18 07:51 1.56110 124.92520 299 ft 0 kts 38°
2026-04-18 07:51 1.56116 124.92534 299 ft 3 kts 65°
2026-04-18 07:51 1.56124 124.92562 298 ft 4 kts 84°
2026-04-18 07:52 1.56121 124.92598 297 ft 7 kts 96°
2026-04-18 07:52 1.56100 124.92654 298 ft 8 kts 140°
2026-04-18 07:52 1.56011 124.92670 301 ft 24 kts 180°
2026-04-18 07:52 1.55628 124.92659 301 ft 92 kts 182°
2026-04-18 07:53 1.54735 124.92630 306 ft 156 kts 181°
2026-04-18 07:53 1.53607 124.92564 879 ft 166 kts 183°
2026-04-18 07:53 1.52406 124.92511 1433 ft 184 kts 179°
2026-04-18 07:53 1.51097 124.92513 2035 ft 198 kts 178°
2026-04-18 07:54 1.49650 124.92517 2596 ft 216 kts 179°
2026-04-18 07:54 1.48098 124.92532 3247 ft 231 kts 175°
2026-04-18 07:54 1.46460 124.92741 3908 ft 245 kts 169°
2026-04-18 07:54 1.44738 124.93079 4565 ft 259 kts 168°
2026-04-18 07:55 1.42920 124.93430 5210 ft 273 kts 169°
2026-04-18 07:55 1.41040 124.93931 5904 ft 284 kts 158°
2026-04-18 07:55 1.39411 124.95033 6778 ft 285 kts 132°
2026-04-18 07:55 1.38375 124.96725 7554 ft 290 kts 112°
2026-04-18 07:56 1.37633 124.98608 8384 ft 292 kts 111°
2026-04-18 07:56 1.36880 125.00513 9163 ft 296 kts 112°
2026-04-18 07:56 1.36101 125.02415 9852 ft 302 kts 112°
2026-04-18 07:56 1.35278 125.04389 10412 ft 313 kts 113°
2026-04-18 07:57 1.34422 125.06444 10888 ft 325 kts 113°
2026-04-18 07:57 1.33543 125.08556 11552 ft 330 kts 113°
2026-04-18 07:57 1.32666 125.10666 12269 ft 332 kts 113°
2026-04-18 07:57 1.31777 125.12805 12916 ft 336 kts 113°
2026-04-18 07:58 1.30949 125.17360 14088 ft 333 kts 82°
2026-04-18 07:58 1.31752 125.19579 14279 ft 352 kts 57°
2026-04-18 07:58 1.33217 125.21549 14775 ft 352 kts 52°
2026-04-18 07:59 1.34726 125.23475 14842 ft 353 kts 52°
2026-04-18 07:59 1.36238 125.25436 14990 ft 362 kts 52°
2026-04-18 07:59 1.37734 125.27402 16061 ft 355 kts 53°
2026-04-18 07:59 1.39222 125.29368 16795 ft 361 kts 53°
2026-04-18 08:00 1.40749 125.31389 17547 ft 364 kts 53°
2026-04-18 08:00 1.42283 125.33422 18275 ft 368 kts 53°
2026-04-18 08:00 1.43830 125.35472 19045 ft 370 kts 52°
2026-04-18 08:00 1.45381 125.37526 19711 ft 374 kts 52°
2026-04-18 08:01 1.46968 125.39625 20370 ft 378 kts 52°
2026-04-18 08:01 1.48547 125.41715 21086 ft 379 kts 51°
2026-04-18 08:01 1.50160 125.43833 21712 ft 382 kts 50°
2026-04-18 08:01 1.51853 125.45847 22332 ft 384 kts 45°
2026-04-18 08:02 1.53845 125.47612 22905 ft 385 kts 34°
2026-04-18 08:02 1.56161 125.48981 23440 ft 387 kts 23°
2026-04-18 08:02 1.58716 125.49882 24002 ft 389 kts 12°
2026-04-18 08:02 1.61409 125.50328 24513 ft 392 kts
2026-04-18 08:03 1.64118 125.50481 25045 ft 395 kts
2026-04-18 08:03 1.66895 125.50523 25530 ft 400 kts 359°
2026-04-18 08:03 1.69701 125.50518 26024 ft 404 kts 358°
2026-04-18 08:03 1.72537 125.50501 26507 ft 408 kts 358°
2026-04-18 08:04 1.75382 125.50484 26983 ft 412 kts 358°
2026-04-18 08:04 1.78261 125.50471 27450 ft 416 kts 358°
2026-04-18 08:04 1.81215 125.50460 27884 ft 421 kts 359°
2026-04-18 08:04 1.84136 125.50453 28355 ft 423 kts 359°
2026-04-18 08:05 1.87119 125.50449 28809 ft 427 kts 359°
2026-04-18 08:05 1.90118 125.50446 29241 ft 431 kts 359°
2026-04-18 08:05 1.93122 125.50446 29680 ft 435 kts 359°
2026-04-18 08:05 1.96178 125.50445 30117 ft 439 kts 359°
2026-04-18 08:06 1.99258 125.50444 30473 ft 444 kts 359°
2026-04-18 08:06 2.02348 125.50383 30851 ft 448 kts 356°
2026-04-18 08:06 2.05452 125.50101 31317 ft 449 kts 351°
2026-04-18 08:06 2.08555 125.49492 31778 ft 451 kts 345°
2026-04-18 08:07 2.11609 125.48635 32101 ft 455 kts 342°
2026-04-18 08:07 2.14646 125.47643 32488 ft 458 kts 340°
2026-04-18 08:07 2.17662 125.46596 32927 ft 460 kts 340°
2026-04-18 08:07 2.20671 125.45535 33311 ft 463 kts 340°
2026-04-18 08:08 2.23716 125.44465 33794 ft 463 kts 340°
2026-04-18 08:08 2.29935 125.42314 33841 ft 479 kts 340°
2026-04-18 08:09 2.36256 125.40170 33842 ft 476 kts 341°
2026-04-18 08:09 2.42576 125.38049 33842 ft 479 kts 341°
2026-04-18 08:10 2.48883 125.35941 33837 ft 479 kts 341°
2026-04-18 08:10 2.55214 125.33828 33832 ft 478 kts 341°
2026-04-18 08:11 2.61532 125.31720 33836 ft 478 kts 341°
2026-04-18 08:11 2.67857 125.29607 33844 ft 477 kts 341°
2026-04-18 08:12 2.74149 125.27505 33845 ft 477 kts 340°
2026-04-18 08:12 2.80450 125.25400 33842 ft 477 kts 340°
2026-04-18 08:13 2.86764 125.23290 33842 ft 478 kts 340°
2026-04-18 08:13 2.93114 125.21168 33843 ft 478 kts 340°
2026-04-18 08:14 2.99435 125.19054 33843 ft 478 kts 340°
2026-04-18 08:14 3.05749 125.16943 33844 ft 479 kts 340°
2026-04-18 08:15 3.12171 125.15085 33840 ft 479 kts 349°
2026-04-18 08:15 3.15468 125.14846 33839 ft 480 kts
2026-04-18 08:15 3.18772 125.15265 33847 ft 479 kts 11°
2026-04-18 08:16 3.25302 125.16742 33843 ft 479 kts 14°
2026-04-18 08:16 3.31794 125.18407 33840 ft 480 kts 15°
2026-04-18 08:17 3.38272 125.20052 33844 ft 478 kts 15°
2026-04-18 08:17 3.44755 125.21662 33840 ft 479 kts 14°
2026-04-18 08:18 3.51208 125.23235 33841 ft 480 kts 14°
2026-04-18 08:18 3.57712 125.24804 33844 ft 478 kts 14°
2026-04-18 08:19 3.64214 125.26368 33843 ft 479 kts 14°
2026-04-18 08:19 3.70675 125.27922 33845 ft 478 kts 14°
2026-04-18 08:20 3.77167 125.29485 33839 ft 479 kts 14°
2026-04-18 08:20 3.83700 125.31059 33844 ft 479 kts 14°
2026-04-18 08:21 3.90163 125.32613 33839 ft 478 kts 14°
2026-04-18 08:21 3.96667 125.34119 33843 ft 478 kts 12°
2026-04-18 08:22 4.03296 125.34689 33843 ft 479 kts 358°
2026-04-18 08:22 4.09975 125.34074 33840 ft 480 kts 352°
2026-04-18 08:23 4.16605 125.33143 33845 ft 479 kts 352°
2026-04-18 08:23 4.23222 125.32206 33843 ft 478 kts 352°
2026-04-18 08:24 4.29850 125.31320 33839 ft 480 kts 352°
2026-04-18 08:24 4.36475 125.30472 33836 ft 480 kts 353°
2026-04-18 08:25 4.43143 125.29634 33842 ft 479 kts 353°
2026-04-18 08:25 4.49734 125.28812 33843 ft 479 kts 353°
2026-04-18 08:26 4.56380 125.27985 33848 ft 480 kts 353°
2026-04-18 08:26 4.63036 125.27155 33848 ft 479 kts 353°
2026-04-18 08:27 4.69658 125.26329 33852 ft 479 kts 353°
2026-04-18 08:27 4.76303 125.25500 33846 ft 479 kts 353°
2026-04-18 08:28 4.82938 125.24673 33847 ft 480 kts 353°
2026-04-18 08:28 4.89589 125.23842 33848 ft 480 kts 353°
2026-04-18 08:29 4.96214 125.23015 33847 ft 480 kts 353°
2026-04-18 08:29 5.02869 125.22184 33841 ft 479 kts 353°
2026-04-18 08:30 5.09511 125.21355 33842 ft 480 kts 353°
2026-04-18 08:30 5.16130 125.20528 33844 ft 479 kts 353°
2026-04-18 08:31 5.22803 125.19694 33841 ft 480 kts 353°
2026-04-18 08:31 5.29458 125.18863 33842 ft 479 kts 353°
2026-04-18 08:32 5.36072 125.18035 33843 ft 480 kts 353°
2026-04-18 08:32 5.42745 125.17201 33841 ft 480 kts 353°
2026-04-18 08:32 5.46014 125.16791 33834 ft 467 kts 353°
2026-04-18 08:33 5.49168 125.16397 33840 ft 450 kts 353°
2026-04-18 08:33 5.52256 125.16015 33843 ft 434 kts 353°
2026-04-18 08:33 5.55221 125.15659 33840 ft 419 kts 353°
2026-04-18 08:33 5.58069 125.15324 33843 ft 404 kts 353°
2026-04-18 08:34 5.60793 125.15005 33842 ft 389 kts 353°
2026-04-18 08:34 5.63473 125.14692 33844 ft 375 kts 354°
2026-04-18 08:34 5.66001 125.14398 33850 ft 367 kts 354°
2026-04-18 08:34 5.68579 125.14321 33843 ft 367 kts
2026-04-18 08:35 5.71023 125.14925 33848 ft 364 kts 26°
2026-04-18 08:35 5.73200 125.16251 33851 ft 363 kts 42°
2026-04-18 08:35 5.75014 125.18015 33850 ft 366 kts 52°
2026-04-18 08:35 5.76466 125.20110 33824 ft 366 kts 67°
2026-04-18 08:36 5.77221 125.22522 33815 ft 367 kts 85°
2026-04-18 08:36 5.77275 125.25082 33883 ft 365 kts 97°
2026-04-18 08:36 5.76900 125.27527 33852 ft 354 kts 108°
2026-04-18 08:36 5.75948 125.29785 33859 ft 351 kts 125°
2026-04-18 08:37 5.74353 125.31671 33860 ft 354 kts 140°
2026-04-18 08:37 5.70233 125.34264 33847 ft 348 kts 162°
2026-04-18 08:37 5.67871 125.34737 33857 ft 348 kts 173°
2026-04-18 08:38 5.65446 125.34996 33852 ft 350 kts 174°
2026-04-18 08:38 5.60591 125.35498 33844 ft 349 kts 173°
2026-04-18 08:39 5.55759 125.36043 33839 ft 349 kts 173°
2026-04-18 08:39 5.50888 125.36522 33837 ft 349 kts 179°
2026-04-18 08:39 5.48471 125.36269 33837 ft 348 kts 194°
2026-04-18 08:40 5.46248 125.35318 33843 ft 353 kts 210°
2026-04-18 08:40 5.44311 125.33779 33847 ft 357 kts 221°
2026-04-18 08:40 5.42637 125.31952 33842 ft 359 kts 231°
2026-04-18 08:40 5.41486 125.29728 33846 ft 365 kts 250°
2026-04-18 08:41 5.41100 125.27182 33853 ft 371 kts 267°
2026-04-18 08:41 5.41377 125.24586 33856 ft 376 kts 278°
2026-04-18 08:41 5.41983 125.22041 33848 ft 377 kts 287°
2026-04-18 08:41 5.43221 125.19750 33852 ft 382 kts 308°
2026-04-18 08:42 5.45243 125.17978 33856 ft 387 kts 328°
2026-04-18 08:42 5.47672 125.16878 33856 ft 385 kts 342°
2026-04-18 08:42 5.50290 125.16253 33858 ft 386 kts 350°
2026-04-18 08:43 5.55644 125.15525 33852 ft 387 kts 354°
2026-04-18 08:43 5.61003 125.14941 33855 ft 387 kts 354°
2026-04-18 08:44 5.66387 125.14336 33854 ft 387 kts 353°
2026-04-18 08:44 5.71812 125.13684 33862 ft 402 kts 353°
2026-04-18 08:45 5.77547 125.12973 33856 ft 422 kts 353°
2026-04-18 08:45 5.83512 125.12228 33858 ft 442 kts 353°
2026-04-18 08:46 5.89798 125.11444 33865 ft 462 kts 353°
2026-04-18 08:46 5.96321 125.10633 33878 ft 481 kts 353°
2026-04-18 08:47 6.02971 125.09875 33886 ft 478 kts 356°
2026-04-18 08:47 6.09557 125.10515 33884 ft 474 kts 19°
2026-04-18 08:48 6.15551 125.13210 33856 ft 467 kts 29°
2026-04-18 08:48 6.18423 125.14722 33528 ft 457 kts 30°
2026-04-18 08:48 6.21196 125.16222 33025 ft 452 kts 30°
2026-04-18 08:48 6.23962 125.17733 32409 ft 450 kts 30°
2026-04-18 08:49 6.26695 125.19225 31752 ft 450 kts 30°
2026-04-18 08:49 6.29458 125.20728 31210 ft 446 kts 30°
2026-04-18 08:49 6.32179 125.22200 30693 ft 442 kts 30°
2026-04-18 08:49 6.34891 125.23659 30144 ft 439 kts 30°
2026-04-18 08:50 6.37562 125.25092 29590 ft 435 kts 30°
2026-04-18 08:50 6.40229 125.26517 29038 ft 432 kts 30°
2026-04-18 08:50 6.42863 125.27924 28496 ft 428 kts 30°
2026-04-18 08:50 6.45477 125.29318 27950 ft 425 kts 30°
2026-04-18 08:51 6.48095 125.30713 27393 ft 422 kts 30°
2026-04-18 08:51 6.50674 125.32087 26850 ft 419 kts 30°
2026-04-18 08:51 6.53258 125.33463 26306 ft 416 kts 30°
2026-04-18 08:51 6.55781 125.34806 25771 ft 412 kts 29°
2026-04-18 08:52 6.58307 125.36151 25235 ft 409 kts 29°
2026-04-18 08:52 6.60830 125.37494 24697 ft 406 kts 29°
2026-04-18 08:52 6.63300 125.38809 24168 ft 403 kts 29°
2026-04-18 08:52 6.65787 125.40075 23830 ft 394 kts 26°
2026-04-18 08:53 6.68325 125.41069 23392 ft 390 kts 17°
2026-04-18 08:53 6.70999 125.41471 22917 ft 388 kts
2026-04-18 08:53 6.73703 125.41282 22441 ft 386 kts 352°
2026-04-18 08:53 6.76297 125.40690 21959 ft 384 kts 345°
2026-04-18 08:54 6.78847 125.39802 21448 ft 382 kts 339°
2026-04-18 08:54 6.81269 125.38715 20981 ft 379 kts 335°
2026-04-18 08:54 6.83608 125.37558 20512 ft 377 kts 334°
2026-04-18 08:54 6.85959 125.36359 20046 ft 374 kts 333°
2026-04-18 08:55 6.88275 125.35176 19592 ft 370 kts 333°
2026-04-18 08:55 6.90571 125.34018 19130 ft 367 kts 334°
2026-04-18 08:55 6.92837 125.32887 18691 ft 364 kts 334°
2026-04-18 08:55 6.95113 125.31760 18239 ft 361 kts 334°
2026-04-18 08:56 6.97349 125.30656 17820 ft 358 kts 334°
2026-04-18 08:56 6.99585 125.29558 17400 ft 354 kts 334°
2026-04-18 08:56 7.01806 125.28469 16971 ft 351 kts 334°
2026-04-18 08:56 7.03986 125.27402 16507 ft 349 kts 334°
2026-04-18 08:57 7.08357 125.25267 15601 ft 344 kts 333°
2026-04-18 08:57 7.10494 125.24223 15138 ft 341 kts 333°
2026-04-18 08:57 7.12644 125.23171 14668 ft 339 kts 333°
2026-04-18 08:58 7.14761 125.22136 14207 ft 337 kts 333°
2026-04-18 08:58 7.16864 125.21107 13744 ft 334 kts 333°
2026-04-18 08:58 7.18972 125.20076 13278 ft 332 kts 333°
2026-04-18 08:58 7.21052 125.19059 12824 ft 329 kts 333°
2026-04-18 08:59 7.23143 125.18139 12392 ft 327 kts 340°
2026-04-18 08:59 7.25390 125.17728 11935 ft 326 kts
2026-04-18 08:59 7.27600 125.18241 11534 ft 324 kts 23°
2026-04-18 08:59 7.29476 125.19506 11223 ft 319 kts 41°
2026-04-18 09:00 7.30947 125.21118 11062 ft 307 kts 53°
2026-04-18 09:00 7.31891 125.23011 10791 ft 297 kts 75°
2026-04-18 09:00 7.32232 125.25041 10547 ft 291 kts 82°
2026-04-18 09:00 7.32470 125.27041 10172 ft 290 kts 82°
2026-04-18 09:01 7.32722 125.29062 9786 ft 290 kts 81°
2026-04-18 09:01 7.32997 125.31078 9426 ft 289 kts 81°
2026-04-18 09:01 7.33284 125.33083 9087 ft 286 kts 81°
2026-04-18 09:01 7.33569 125.35036 8755 ft 284 kts 80°
2026-04-18 09:02 7.33851 125.37003 8410 ft 282 kts 82°
2026-04-18 09:02 7.33892 125.38979 8073 ft 281 kts 96°
2026-04-18 09:02 7.33208 125.40804 7727 ft 281 kts 123°
2026-04-18 09:02 7.31986 125.42356 7363 ft 280 kts 130°
2026-04-18 09:03 7.30701 125.43804 7071 ft 277 kts 131°
2026-04-18 09:03 7.29423 125.45275 7049 ft 278 kts 129°
2026-04-18 09:03 7.28148 125.46800 7046 ft 280 kts 129°
2026-04-18 09:03 7.26917 125.48310 7036 ft 281 kts 128°
2026-04-18 09:04 7.25671 125.49854 7021 ft 280 kts 128°
2026-04-18 09:04 7.24442 125.51378 7007 ft 278 kts 128°
2026-04-18 09:04 7.23236 125.52873 6791 ft 272 kts 128°
2026-04-18 09:04 7.22039 125.54355 6455 ft 271 kts 128°
2026-04-18 09:05 7.20848 125.55829 6114 ft 271 kts 128°
2026-04-18 09:05 7.19649 125.57313 5778 ft 270 kts 128°
2026-04-18 09:05 7.18471 125.58770 5431 ft 270 kts 128°
2026-04-18 09:05 7.17274 125.60250 5088 ft 269 kts 128°
2026-04-18 09:06 7.16085 125.61722 4744 ft 268 kts 128°
2026-04-18 09:06 7.14982 125.63220 4403 ft 266 kts 120°
2026-04-18 09:06 7.14344 125.64932 4078 ft 262 kts 95°
2026-04-18 09:06 7.14632 125.66669 4016 ft 245 kts 66°
2026-04-18 09:07 7.15529 125.68060 4017 ft 227 kts 51°
2026-04-18 09:07 7.16534 125.69239 4011 ft 210 kts 49°
2026-04-18 09:07 7.17460 125.70297 4007 ft 195 kts 49°
2026-04-18 09:07 7.18364 125.71333 4020 ft 192 kts 49°
2026-04-18 09:08 7.19245 125.72342 3975 ft 190 kts 49°
2026-04-18 09:08 7.20116 125.73346 3863 ft 188 kts 51°
2026-04-18 09:08 7.20744 125.74487 3796 ft 188 kts 75°
2026-04-18 09:08 7.20735 125.75809 3676 ft 191 kts 102°
2026-04-18 09:09 7.20218 125.77052 3422 ft 194 kts 120°
2026-04-18 09:09 7.19275 125.77991 3235 ft 191 kts 149°
2026-04-18 09:09 7.17977 125.78355 3114 ft 193 kts 173°
2026-04-18 09:09 7.16629 125.78230 2978 ft 194 kts 195°
2026-04-18 09:10 7.15500 125.77498 2838 ft 196 kts 227°
2026-04-18 09:10 7.14804 125.76307 2687 ft 199 kts 247°
2026-04-18 09:10 7.14579 125.74925 2487 ft 202 kts 276°
2026-04-18 09:10 7.15091 125.73636 2304 ft 204 kts 309°
2026-04-18 09:11 7.16061 125.72590 2143 ft 199 kts 314°
2026-04-18 09:11 7.16783 125.71446 1997 ft 193 kts 284°
2026-04-18 09:11 7.16689 125.70181 1978 ft 173 kts 246°
2026-04-18 09:11 7.16213 125.69115 1989 ft 160 kts 240°
2026-04-18 09:12 7.15670 125.68129 1999 ft 159 kts 232°
2026-04-18 09:12 7.14940 125.67319 2000 ft 158 kts 206°
2026-04-18 09:12 7.13809 125.67131 2031 ft 171 kts 164°
2026-04-18 09:12 7.12808 125.67794 2007 ft 174 kts 123°
2026-04-18 09:13 7.12524 125.68961 1949 ft 176 kts 83°
2026-04-18 09:13 7.13067 125.70074 1923 ft 178 kts 55°
2026-04-18 09:13 7.13855 125.71066 1926 ft 178 kts 55°
2026-04-18 09:13 7.14610 125.72052 1907 ft 177 kts 56°
2026-04-18 09:14 7.15368 125.73044 1893 ft 176 kts 55°
2026-04-18 09:14 7.16136 125.74032 1884 ft 177 kts 56°
2026-04-18 09:14 7.16900 125.75028 1874 ft 176 kts 55°
2026-04-18 09:14 7.17663 125.76004 1887 ft 178 kts 55°
2026-04-18 09:15 7.18426 125.76992 1901 ft 178 kts 56°
2026-04-18 09:15 7.19175 125.77975 1900 ft 178 kts 55°
2026-04-18 09:15 7.20072 125.78850 1858 ft 181 kts 31°
2026-04-18 09:15 7.21322 125.79037 1801 ft 188 kts 351°
2026-04-18 09:16 7.22448 125.78363 1742 ft 196 kts 311°
2026-04-18 09:16 7.22931 125.77078 1686 ft 200 kts 270°
2026-04-18 09:16 7.22541 125.75764 1642 ft 194 kts 232°
2026-04-18 09:16 7.21561 125.74902 1623 ft 187 kts 213°
2026-04-18 09:17 7.20610 125.74000 1569 ft 184 kts 229°
2026-04-18 09:17 7.19871 125.72986 1451 ft 174 kts 229°
2026-04-18 09:17 7.19095 125.72103 1283 ft 160 kts 223°
2026-04-18 09:17 7.18383 125.71322 1279 ft 148 kts 226°
2026-04-18 09:18 7.17720 125.70530 1374 ft 147 kts 226°
2026-04-18 09:18 7.17030 125.69745 1164 ft 147 kts 225°
2026-04-18 09:18 7.16375 125.68991 958 ft 140 kts 227°
2026-04-18 09:18 7.15727 125.68228 792 ft 145 kts 226°
2026-04-18 09:19 7.15038 125.67456 650 ft 150 kts 227°
2026-04-18 09:19 7.14349 125.66667 369 ft 147 kts 226°
2026-04-18 09:19 7.13703 125.65922 187 ft 135 kts 228°
2026-04-18 09:19 7.13117 125.65238 105 ft 114 kts 236°
2026-04-18 09:20 7.12700 125.64750 93 ft 72 kts 226°
2026-04-18 09:20 7.12435 125.64454 89 ft 49 kts 229°
2026-04-18 09:20 7.12232 125.64204 95 ft 43 kts 229°
2026-04-18 09:20 7.12042 125.63985 99 ft 40 kts 230°
2026-04-18 09:21 7.11888 125.63803 105 ft 25 kts 229°
2026-04-18 09:21 7.11778 125.63676 109 ft 22 kts 237°
2026-04-18 09:21 7.11750 125.63597 111 ft 11 kts 235°
2026-04-18 09:21 7.11750 125.63647 109 ft 16 kts 50°
2026-04-18 09:22 7.11841 125.63751 107 ft 20 kts 50°
2026-04-18 09:22 7.11938 125.63869 102 ft 22 kts 49°
2026-04-18 09:22 7.12047 125.63990 99 ft 24 kts 49°
2026-04-18 09:22 7.12159 125.64119 96 ft 24 kts 49°
2026-04-18 09:23 7.12273 125.64253 93 ft 25 kts 49°
2026-04-18 09:23 7.12392 125.64390 90 ft 26 kts 49°
2026-04-18 09:23 7.12492 125.64507 88 ft 11 kts 49°
2026-04-18 09:23 7.12554 125.64555 88 ft 11 kts
2026-04-18 09:24 7.12610 125.64526 90 ft 0 kts 321°
2026-04-18 09:24 7.12611 125.64526 90 ft 0 kts 321°
2026-04-18 09:24 7.12612 125.64525 90 ft 1 kts 321°